EW2458 Weather Reports


Display with metric or nautical units.
time (UTC)temp
F
wind
direction
speed
MPH
gust
MPH
rain 1hr
in
rain 24hr
in
rain mn
in
humidity
%
barometer
mb
20260906111518 69 113 1.0 2.0 0.00 0.11 0.05 97 1011.2
20260906110016 70 139 0.0 1.0 0.00 0.11 0.05 97 1011.2
20260906104517 70 141 0.0 2.0 0.00 0.11 0.05 98 1011.1
20260906103015 70 127 0.0 2.0 0.00 0.11 0.05 97 1011.0
20260906101512 70 145 0.0 1.0 0.00 0.11 0.05 97 1011.0
20260906100012 71 122 0.0 0.0 0.01 0.11 0.05 97 1011.2
20260906094511 71 122 0.0 1.0 0.01 0.11 0.05 97 1011.2
20260906093030 71 159 0.0 0.0 0.01 0.11 0.05 97 1011.3
20260906091509 71 159 0.0 1.0 0.01 0.11 0.05 97 1011.1
20260906090013 71 100 0.0 1.0 0.00 0.10 0.04 97 1010.9
20260906084510 72 132 0.0 1.0 0.00 0.10 0.04 97 1010.8
20260906083010 72 131 0.0 1.0 0.00 0.10 0.04 97 1010.7
20260906081504 72 352 0.0 1.0 0.00 0.10 0.04 97 1010.7
20260906080004 72 350 0.0 2.0 0.00 0.10 0.04 97 1010.7
20260906074506 72 149 0.0 1.0 0.00 0.10 0.04 96 1010.4
20260906073059 72 356 0.0 2.0 0.00 0.10 0.04 96 1010.9
20260906071557 73 158 0.0 0.0 0.00 0.10 0.04 96 1011.1
20260906070054 73 159 0.0 0.0 0.00 0.10 0.04 95 1011.6
20260906064553 73 128 0.0 1.0 0.00 0.10 0.04 95 1012.0
20260906063055 73 221 0.0 2.0 0.00 0.10 0.04 95 1012.0
20260906061601 73 247 0.0 2.0 0.01 0.10 0.04 95 1011.5
20260906054548 74 219 0.0 5.0 0.10 0.10 0.04 93 1012.0
20260906053055 74 255 1.0 4.0 0.10 0.10 0.04 93 1012.5
20260906051541 75 25 0.0 7.0 0.09 0.09 0.03 91 1012.9
20260906050038 76 333 6.0 11.0 0.06 0.06 0.00 89 1012.7
20260906044536 78 314 6.0 10.0 0.00 0.00 0.00 86 1011.9
20260906043037 76 335 4.0 7.0 0.00 0.00 0.00 90 1011.4
20260906041546 75 96 0.0 1.0 0.00 0.00 0.00 91 1010.9
20260906040036 75 120 0.0 3.0 0.00 0.00 0.00 92 1011.2
20260906034541 75 102 1.0 3.0 0.00 0.00 0.00 91 1011.4
20260906033036 75 139 0.0 1.0 0.00 0.00 0.00 91 1011.0
20260906031539 75 131 0.0 4.0 0.00 0.00 0.00 92 1010.9
20260906030039 76 120 0.0 2.0 0.00 0.00 0.00 91 1010.9
20260906024532 76 117 0.0 1.0 0.00 0.00 0.00 90 1010.8
20260906023033 77 122 2.0 4.0 0.00 0.00 0.00 89 1010.8
20260906021531 77 98 0.0 3.0 0.00 0.00 0.00 86 1010.6
20260906020032 79 96 0.0 2.0 0.00 0.00 0.00 82 1010.1
20260906014542 80 208 0.0 3.0 0.00 0.00 0.00 79 1009.9
20260906013030 81 128 1.0 5.0 0.00 0.00 0.00 78 1009.9
20260906011531 81 68 0.0 3.0 0.00 0.00 0.00 77 1010.2
20260906010054 80 349 0.0 3.0 0.00 0.00 0.00 80 1010.3
20260906004528 80 149 1.0 5.0 0.00 0.00 0.00 79 1010.0
20260906003027 81 106 1.0 3.0 0.00 0.00 0.00 77 1010.0
20260906001541 83 148 0.0 2.0 0.00 0.00 0.00 73 1009.8
20260906000027 84 43 0.0 0.0 0.00 0.00 0.00 70 1009.8
20260905234526 86 146 0.0 1.0 0.00 0.00 0.00 68 1009.8
20260905233025 86 152 1.0 3.0 0.00 0.00 0.00 66 1009.7
20260905231537 86 101 1.0 3.0 0.00 0.00 0.00 66 1009.6
20260905230025 86 82 1.0 5.0 0.00 0.00 0.00 65 1009.5
20260905224624 87 109 1.0 3.0 0.00 0.00 0.00 63 1009.5
20260905223034 86 114 0.0 7.0 0.00 0.00 0.00 65 1009.7
20260905221523 86 124 1.0 9.0 0.00 0.00 0.00 65 1010.0
20260905220027 87 107 7.0 12.0 0.00 0.00 0.00 63 1010.1
20260905214520 89 119 9.0 17.0 0.00 0.00 0.00 60 1010.1
20260905213021 94 119 11.0 20.0 0.00 0.00 0.00 55 1009.7
20260905211535 94 77 2.0 11.0 0.00 0.00 0.00 54 1009.6
20260905210020 95 124 5.0 13.0 0.00 0.00 0.00 52 1009.6
20260905204524 97 321 6.0 12.0 0.00 0.00 0.00 47 1009.3
20260905203029 97 248 2.0 6.0 0.00 0.00 0.00 48 1009.3
20260905201521 96 319 5.0 12.0 0.00 0.00 0.00 48 1009.6
20260905200011 96 304 6.0 10.0 0.00 0.00 0.00 49 1009.8
20260905194508 96 290 5.0 9.0 0.00 0.00 0.00 49 1010.1
20260905193008 95 30 5.0 10.0 0.00 0.00 0.00 51 1010.3
20260905191504 96 308 7.0 10.0 0.00 0.00 0.00 51 1010.7
20260905190002 96 276 4.0 10.0 0.00 0.00 0.00 50 1010.8
20260905184611 96 89 0.0 3.0 0.00 0.00 0.00 51 1010.9
20260905183112 95 359 4.0 9.0 0.00 0.00 0.00 52 1011.1
20260905181658 96 214 1.0 5.0 0.00 0.00 0.00 52 1011.3
20260905180057 95 53 2.0 12.0 0.00 0.00 0.00 53 1011.5
20260905174552 95 75 0.0 6.0 0.00 0.00 0.00 53 1011.7
20260905173050 94 352 6.0 9.0 0.00 0.00 0.00 56 1011.8
20260905171550 95 153 0.0 6.0 0.00 0.00 0.00 56 1012.0
20260905170050 94 58 0.0 3.0 0.00 0.00 0.00 60 1012.2
20260905164540 93 297 1.0 2.0 0.00 0.00 0.00 63 1012.4
20260905161533 89 290 1.0 5.0 0.00 0.00 0.00 70 1012.9
20260905160033 88 311 2.0 6.0 0.00 0.00 0.00 70 1012.9
20260905154532 88 39 1.0 4.0 0.00 0.00 0.00 68 1012.9
20260905153030 86 308 2.0 4.0 0.00 0.00 0.00 70 1013.0
20260905151535 87 280 0.0 3.0 0.00 0.00 0.00 72 1013.1
20260905150026 85 23 1.0 2.0 0.00 0.00 0.00 74 1013.1
20260905144530 85 138 0.0 0.0 0.00 0.00 0.00 77 1013.2
20260905143018 82 230 0.0 0.0 0.00 0.00 0.00 81 1013.3
20260905141515 81 124 0.0 0.0 0.00 0.00 0.00 82 1013.3
20260905140011 79 124 0.0 1.0 0.00 0.00 0.00 87 1013.4
20260905134507 77 31 0.0 1.0 0.00 0.00 0.00 89 1013.4
20260905133004 76 141 0.0 0.0 0.00 0.00 0.00 91 1013.5
20260905131620 74 141 0.0 1.0 0.00 0.00 0.00 93 1013.8
20260905130058 74 141 0.0 0.0 0.00 0.00 0.00 94 1013.8
20260905124556 72 141 0.0 0.0 0.00 0.00 0.00 96 1013.9
20260905123103 71 141 0.0 0.0 0.00 0.00 0.00 97 1013.7
20260905121554 70 141 0.0 0.0 0.00 0.00 0.00 97 1013.6
20260905120051 70 141 0.0 1.0 0.00 0.00 0.00 97 1013.4
20260905114550 69 141 0.0 1.0 0.00 0.00 0.00 97 1013.3
20260905113051 69 142 0.0 1.0 0.00 0.00 0.00 97 1013.1